Montgomery, AL

5:15 PM CST on February 22, 2017 (GMT -0600)
Maxwell Air Force Base

Weather History for KMXF - August, 2014

Change the Weather History Date:

Friday, August 22, 2014

  Actual Average Record
Temperature  
Mean Temperature 86 °F -  
Max Temperature 96 °F 90 °F 102 °F (2007)
Min Temperature 75 °F 71 °F 64 °F (1997)
Cooling Degree Days 20    
Growing Degree Days 36 (Base 50)    
Moisture  
Dew Point 75 °F    
Average Humidity 74    
Maximum Humidity 100    
Minimum Humidity 47    
Precipitation  
Precipitation 0.00 in - - ()
Sea Level Pressure  
Sea Level Pressure 30.05 in    
Wind  
Wind Speed 2 mph (WNW)    
Max Wind Speed 10 mph    
Max Gust Speed 20 mph    
Visibility 9 miles    
Events      
Averages and records for this station are not official NWS values.
T = Trace of Precipitation, MM = Missing Value Source: NWS Daily Summary

Daily Weather History Graph

Daily Weather History Graph

Search for Another Location

Airport or City:

Trip Planner

Search our weather history database for the weather conditions in past years. The results will help you decide how hot, cold, wet, or windy it might be!

Date:

Astronomy

Aug. 22, 2014 Rise Set
Actual Time 6:14 AM CDT 7:22 PM CDT
Civil Twilight 5:48 AM CDT 7:47 PM CDT
Nautical Twilight 5:18 AM CDT 8:17 PM CDT
Astronomical Twilight 4:46 AM CDT 8:48 PM CDT
Moon 3:40 AM CDT 5:27 PM CDT
Length of Visible Light 13h 58m
Length of Day
13h 07m
Waning Crescent, 7% of the Moon is Illuminated
Aug 22
Waning Crescent
Aug 25
New
Sep 2
First Quarter
Sep 8
Full
Sep 15
Last Quarter

Hourly Weather History & Observations

Time (CDT) Temp. Heat Index Dew Point Humidity Pressure Visibility Wind Dir Wind Speed Gust Speed Precip Events Conditions
12:58 AM 79.7 °F - 78.1 °F 95% 30.07 in 10.0 mi Calm Calm - N/A   Clear
1:58 AM 77.9 °F - 77.9 °F 100% 30.06 in 10.0 mi WNW 2.3 mph - N/A   Clear
2:58 AM 77.2 °F - 77.2 °F 100% 30.06 in 6.0 mi Calm Calm - N/A   Clear
3:58 AM 76.8 °F - 76.8 °F 100% 30.06 in 10.0 mi NNE 2.3 mph - N/A   Clear
4:58 AM 76.3 °F - 76.3 °F 100% 30.07 in 9.0 mi SW 2.3 mph - N/A   Clear
5:43 AM 75.2 °F - 75.2 °F 100% 30.07 in 2.5 mi SE 2.3 mph - N/A   Clear
5:48 AM 75.2 °F - 75.2 °F 100% 30.07 in 4.0 mi Calm Calm - N/A   Clear
5:58 AM 75.2 °F - 75.2 °F 100% 30.07 in 5.0 mi West 2.3 mph - N/A   Clear
6:58 AM 76.1 °F - 76.1 °F 100% 30.09 in 9.0 mi West 2.3 mph - N/A   Clear
7:58 AM 79.3 °F - 78.4 °F 97% 30.12 in 10.0 mi Calm Calm - N/A   Clear
8:58 AM 83.8 °F 93.2 °F 76.6 °F 79% 30.12 in 10.0 mi Variable 3.5 mph - N/A   Clear
9:58 AM 87.4 °F 96.2 °F 74.3 °F 65% 30.14 in 10.0 mi NNW 10.4 mph - 0.00 in   Clear
10:58 AM 89.8 °F 99.7 °F 74.7 °F 61% 30.12 in 10.0 mi Variable 4.6 mph - N/A   Clear
11:58 AM 91.9 °F 100.7 °F 73.4 °F 54% 30.11 in 10.0 mi NNW 8.1 mph - N/A   Clear
12:58 PM 92.8 °F 102.2 °F 73.6 °F 53% 30.09 in 10.0 mi NW 4.6 mph - N/A   Partly Cloudy
1:58 PM 95.0 °F 104.5 °F 73.4 °F 49% 30.06 in 10.0 mi Variable 2.3 mph - N/A   Scattered Clouds
2:58 PM 95.7 °F 105.5 °F 72.9 °F 48% 30.04 in 10.0 mi Variable 1.2 mph - N/A   Partly Cloudy
3:47 PM 96.8 °F 107.3 °F 73.4 °F 47% 30.02 in 10.0 mi WNW 4.6 mph - N/A   Light Drizzle
3:57 PM 95.0 °F 103.2 °F 71.6 °F 47% 30.02 in 10.0 mi Variable 5.8 mph - N/A   Overcast
3:58 PM 95.9 °F 105.2 °F 72.5 °F 47% 30.02 in 10.0 mi Variable 4.6 mph - 0.00 in   Overcast
4:04 PM 95.0 °F 103.2 °F 71.6 °F 47% 30.02 in 10.0 mi Variable 3.5 mph - N/A   Light Drizzle
4:18 PM 93.2 °F 100.5 °F 71.6 °F 49% 30.01 in 10.0 mi NW 8.1 mph 19.6 mph N/A   Scattered Clouds
4:58 PM 95.4 °F 104.0 °F 72.1 °F 47% 30.01 in 10.0 mi West 1.2 mph - 0.00 in   Clear
5:58 PM 95.2 °F 104.9 °F 73.0 °F 49% 29.99 in 10.0 mi SW 4.6 mph - N/A   Clear
6:58 PM 89.8 °F 102.7 °F 77.2 °F 66% 29.99 in 10.0 mi WNW 1.2 mph - N/A   Mostly Cloudy
7:58 PM 86.7 °F 95.9 °F 75.0 °F 68% 29.99 in 10.0 mi WNW 2.3 mph - N/A   Clear
8:58 PM 82.4 °F 90.3 °F 76.5 °F 82% 30.01 in 10.0 mi Calm Calm - N/A   Clear
9:58 PM 81.5 °F 88.0 °F 75.6 °F 82% 30.01 in 10.0 mi NNW 1.2 mph - N/A   Clear
10:58 PM 79.9 °F - 76.1 °F 88% 30.01 in 10.0 mi SW 2.3 mph - N/A   Clear
11:58 PM 79.5 °F - 76.5 °F 90% 30.01 in 10.0 mi Calm Calm - N/A   Clear